| time (UTC) | temp F | wind direction | speed MPH | gust MPH | rain 1hr in | rain 24hr in | rain mn in | humidity % | barometer mb |
| 20260506084538 | 44 | 257 | 0.0 | 2.0 | 0.03 | 1.16 | 0.15 | 95 | 1009.0 |
| 20260506083036 | 45 | 302 | 0.0 | 1.0 | 0.05 | 1.16 | 0.15 | 95 | 1008.6 |
| 20260506081534 | 45 | 0 | 0.0 | 1.0 | 0.05 | 1.16 | 0.14 | 95 | 1008.3 |
| 20260506073032 | 45 | 65 | 0.0 | 2.0 | 0.04 | 1.12 | 0.10 | 95 | 1008.7 |
| 20260506071532 | 45 | 0 | 0.0 | 2.0 | 0.03 | 1.11 | 0.09 | 95 | 1008.4 |
| 20260506061536 | 46 | 0 | 0.0 | 0.0 | 0.02 | 1.07 | 0.05 | 95 | 1008.2 |
| 20260506044541 | 46 | 0 | 0.0 | 0.0 | 0.03 | 1.04 | 0.02 | 95 | 1008.7 |
| 20260506043035 | 46 | 0 | 0.0 | 1.0 | 0.03 | 1.03 | 0.01 | 95 | 1008.9 |
| 20260506041547 | 46 | 0 | 0.0 | 0.0 | 0.03 | 1.02 | 0.00 | 95 | 1009.1 |
| 20260506040040 | 46 | 0 | 0.0 | 0.0 | 0.05 | 1.02 | 0.00 | 95 | 1009.1 |
| 20260506034536 | 46 | 0 | 0.0 | 1.0 | 0.06 | 1.01 | 1.01 | 95 | 1009.4 |
| 20260506033035 | 47 | 0 | 0.0 | 0.0 | 0.08 | 1.00 | 1.00 | 94 | 1009.5 |
| 20260506031535 | 48 | 300 | 2.0 | 5.0 | 0.10 | 0.99 | 0.99 | 95 | 1009.6 |
| 20260506030035 | 48 | 0 | 0.0 | 2.0 | 0.13 | 0.97 | 0.97 | 95 | 1009.5 |
| 20260506024540 | 48 | 0 | 0.0 | 1.0 | 0.15 | 0.95 | 0.95 | 95 | 1009.7 |
| 20260506023036 | 48 | 0 | 0.0 | 2.0 | 0.13 | 0.92 | 0.92 | 95 | 1009.7 |
| 20260506021546 | 49 | 314 | 0.0 | 2.0 | 0.11 | 0.89 | 0.89 | 95 | 1009.4 |
| 20260506020035 | 49 | 55 | 1.0 | 4.0 | 0.06 | 0.83 | 0.83 | 95 | 1009.2 |
| 20260506014532 | 49 | 12 | 1.0 | 3.0 | 0.04 | 0.80 | 0.80 | 95 | 1009.0 |
| 20260506013034 | 49 | 0 | 0.0 | 0.0 | 0.03 | 0.79 | 0.79 | 95 | 1008.9 |
| 20260506011558 | 49 | 0 | 0.0 | 0.0 | 0.04 | 0.78 | 0.78 | 95 | 1008.7 |
| 20260506010034 | 49 | 0 | 0.0 | 0.0 | 0.05 | 0.77 | 0.77 | 95 | 1008.8 |
| 20260506004541 | 49 | 0 | 0.0 | 0.0 | 0.06 | 0.76 | 0.76 | 95 | 1008.9 |
| 20260506003035 | 49 | 0 | 0.0 | 2.0 | 0.09 | 0.76 | 0.76 | 94 | 1008.8 |
| 20260506001535 | 49 | 0 | 0.0 | 3.0 | 0.07 | 0.74 | 0.74 | 94 | 1008.8 |
| 20260506000030 | 49 | 42 | 1.0 | 3.0 | 0.06 | 0.72 | 0.72 | 94 | 1008.4 |
| 20260505234534 | 49 | 320 | 0.0 | 2.0 | 0.05 | 0.70 | 0.70 | 94 | 1008.1 |
| 20260505233036 | 49 | 321 | 1.0 | 2.0 | 0.08 | 0.67 | 0.67 | 94 | 1008.2 |
| 20260505231540 | 49 | 38 | 0.0 | 5.0 | 0.12 | 0.67 | 0.67 | 94 | 1008.3 |
| 20260505230035 | 49 | 34 | 1.0 | 4.0 | 0.14 | 0.66 | 0.66 | 94 | 1008.3 |
| 20260505224532 | 49 | 327 | 2.0 | 5.0 | 0.16 | 0.64 | 0.64 | 93 | 1009.0 |
| 20260505223035 | 50 | 33 | 2.0 | 5.0 | 0.15 | 0.58 | 0.58 | 93 | 1008.8 |
| 20260505221534 | 50 | 299 | 1.0 | 6.0 | 0.13 | 0.55 | 0.55 | 93 | 1009.0 |
| 20260505220052 | 51 | 330 | 3.0 | 7.0 | 0.13 | 0.52 | 0.52 | 93 | 1008.5 |
| 20260505214539 | 51 | 340 | 0.0 | 3.0 | 0.12 | 0.48 | 0.48 | 93 | 1008.2 |
| 20260505213038 | 52 | 342 | 0.0 | 3.0 | 0.11 | 0.44 | 0.44 | 93 | 1007.8 |
| 20260505211538 | 52 | 46 | 3.0 | 9.0 | 0.12 | 0.42 | 0.42 | 92 | 1007.8 |
| 20260505210039 | 53 | 328 | 2.0 | 10.0 | 0.12 | 0.38 | 0.38 | 92 | 1007.9 |
| 20260505204532 | 54 | 36 | 4.0 | 9.0 | 0.12 | 0.36 | 0.36 | 92 | 1007.9 |
| 20260505203035 | 56 | 52 | 4.0 | 12.0 | 0.10 | 0.33 | 0.33 | 91 | 1007.8 |
| 20260505201538 | 57 | 0 | 1.0 | 4.0 | 0.15 | 0.30 | 0.30 | 91 | 1007.9 |
| 20260505200035 | 57 | 304 | 1.0 | 6.0 | 0.21 | 0.26 | 0.26 | 91 | 1007.9 |
| 20260505194532 | 57 | 278 | 0.0 | 2.0 | 0.21 | 0.24 | 0.24 | 90 | 1007.9 |
| 20260505193035 | 57 | 314 | 1.0 | 3.0 | 0.22 | 0.23 | 0.23 | 88 | 1007.9 |
| 20260505191536 | 58 | 0 | 0.0 | 6.0 | 0.15 | 0.15 | 0.15 | 86 | 1008.1 |
| 20260505190035 | 59 | 0 | 0.0 | 1.0 | 0.05 | 0.05 | 0.05 | 84 | 1008.0 |
| 20260505184532 | 59 | 0 | 1.0 | 3.0 | 0.02 | 0.02 | 0.02 | 83 | 1007.9 |
| 20260505183045 | 60 | 246 | 2.0 | 8.0 | 0.00 | 0.00 | 0.00 | 80 | 1008.1 |
| 20260505181533 | 61 | 219 | 5.0 | 11.0 | 0.00 | 0.00 | 0.00 | 78 | 1007.9 |
| 20260505180035 | 61 | 213 | 5.0 | 15.0 | 0.00 | 0.00 | 0.00 | 76 | 1007.8 |
| 20260505174535 | 62 | 299 | 3.0 | 13.0 | 0.00 | 0.00 | 0.00 | 75 | 1007.8 |
| 20260505173035 | 63 | 242 | 3.0 | 11.0 | 0.00 | 0.00 | 0.00 | 74 | 1007.7 |
| 20260505171532 | 63 | 281 | 6.0 | 12.0 | 0.00 | 0.00 | 0.00 | 74 | 1007.6 |
| 20260505170031 | 63 | 5 | 4.0 | 12.0 | 0.00 | 0.00 | 0.00 | 74 | 1007.7 |
| 20260505164553 | 63 | 277 | 3.0 | 14.0 | 0.00 | 0.00 | 0.00 | 74 | 1007.8 |
| 20260505163036 | 64 | 333 | 3.0 | 13.0 | 0.00 | 0.00 | 0.00 | 73 | 1007.7 |
| 20260505161547 | 64 | 293 | 6.0 | 14.0 | 0.00 | 0.00 | 0.00 | 71 | 1007.5 |
| 20260505153040 | 67 | 344 | 5.0 | 13.0 | 0.00 | 0.00 | 0.00 | 66 | 1007.1 |
| 20260505151536 | 67 | 227 | 4.0 | 14.0 | 0.00 | 0.00 | 0.00 | 67 | 1006.4 |
| 20260505124544 | 62 | 54 | 5.0 | 15.0 | 0.00 | 0.00 | 0.00 | 74 | 1006.0 |
| 20260505123032 | 61 | 243 | 5.0 | 14.0 | 0.00 | 0.00 | 0.00 | 74 | 1005.9 |
| 20260505121536 | 61 | 230 | 5.0 | 20.0 | 0.00 | 0.00 | 0.00 | 73 | 1005.7 |
| 20260505120047 | 61 | 291 | 3.0 | 12.0 | 0.00 | 0.00 | 0.00 | 74 | 1005.3 |
| 20260505114534 | 61 | 201 | 1.0 | 7.0 | 0.00 | 0.00 | 0.00 | 74 | 1004.8 |
| 20260505113034 | 61 | 234 | 1.0 | 7.0 | 0.00 | 0.00 | 0.00 | 73 | 1004.2 |
| 20260505111537 | 61 | 41 | 4.0 | 12.0 | 0.00 | 0.00 | 0.00 | 72 | 1004.1 |
| 20260505101533 | 63 | 245 | 2.0 | 8.0 | 0.00 | 0.00 | 0.00 | 71 | 1004.0 |
| 20260505100034 | 64 | 178 | 5.0 | 18.0 | 0.00 | 0.00 | 0.00 | 69 | 1004.1 |
| 20260505094536 | 64 | 217 | 2.0 | 12.0 | 0.00 | 0.00 | 0.00 | 68 | 1003.8 |
| 20260505093035 | 65 | 217 | 3.0 | 11.0 | 0.00 | 0.00 | 0.00 | 67 | 1003.4 |
| 20260505091535 | 65 | 242 | 5.0 | 12.0 | 0.00 | 0.00 | 0.00 | 67 | 1003.2 |
| 20260505090048 | 65 | 254 | 5.0 | 13.0 | 0.00 | 0.00 | 0.00 | 66 | 1003.1 |